K4YY Weather Reports


time (UTC)temp
F
wind
direction
speed
knots
gust
knots
rain 1hr
in
rain 24hr
in
rain mn
in
humidity
%
barometer
mb
20260510094519 72 0.0 0.0 0.00 0.08 0.01 92 1013.2
20260510093519 72 0.0 0.0 0.00 0.08 0.01 92 1013.0
20260510092519 72 0.0 0.0 0.00 0.08 0.01 92 1012.8
20260510091518 72 0.0 0.0 0.00 0.08 0.01 92 1012.6
20260510090518 72 315 0.9 2.6 0.00 0.08 0.01 92 1012.7
20260510085518 72 0.0 0.0 0.00 0.08 0.01 92 1012.6
20260510084538 72 0.0 0.0 0.00 0.08 0.01 92 1012.2
20260510083518 72 0.0 0.0 0.00 0.08 0.01 92 1012.4
20260510082518 72 0.0 0.0 0.00 0.08 0.01 92 1012.1
20260510081538 72 0.0 0.0 0.00 0.08 0.01 92 1012.2
20260510080518 72 0.0 0.0 0.00 0.08 0.01 92 1012.4
20260510075518 72 0.0 0.0 0.00 0.08 0.01 92 1012.5
20260510074518 72 0.0 0.0 0.00 0.08 0.01 92 1012.7
20260510073518 72 0.0 0.0 0.00 0.08 0.01 92 1012.4
20260510072518 71 0.0 0.0 0.00 0.08 0.01 92 1012.1
20260510071518 72 0.0 0.0 0.00 0.08 0.01 92 1012.3
20260510070518 71 0.0 0.0 0.00 0.08 0.01 92 1012.4
20260510065518 71 0.0 0.0 0.00 0.08 0.01 92 1012.2
20260510064518 71 0.0 0.0 0.00 0.08 0.01 92 1012.4
20260510063518 71 0.0 0.0 0.00 0.08 0.01 92 1012.4
20260510062518 71 0.0 0.0 0.00 0.08 0.01 92 1012.4
20260510061518 71 0.0 0.0 0.00 0.08 0.01 92 1012.3
20260510060518 71 0.0 0.0 0.01 0.08 0.01 92 1012.5
20260510055518 71 0.0 0.0 0.01 0.08 0.01 92 1012.9
20260510054518 71 0.0 0.0 0.01 0.08 0.01 92 1013.0
20260510053518 71 0.0 0.0 0.01 0.08 0.01 92 1013.0
20260510052518 71 0.0 0.0 0.01 0.08 0.01 92 1013.1
20260510051518 71 0.0 0.0 0.01 0.08 0.01 91 1013.3
20260510050518 71 0.0 0.0 0.00 0.07 0.00 91 1013.5
20260510045518 71 0.0 0.0 0.00 0.50 0.00 92 1013.6
20260510044518 71 0.0 0.0 0.00 0.50 0.00 91 1013.6
20260510043518 71 0.0 0.0 0.00 0.50 0.00 91 1013.6
20260510042518 71 0.0 0.0 0.00 0.50 0.00 91 1013.5
20260510041538 71 0.0 0.0 0.00 0.50 0.00 91 1013.6
20260510040518 71 0.0 0.0 0.00 0.50 0.00 91 1013.5
20260510035519 71 0.0 0.0 0.00 0.51 0.50 91 1013.6
20260510034519 71 0.0 0.0 0.00 0.51 0.50 91 1013.8
20260510033519 71 0.0 0.0 0.00 0.51 0.50 91 1013.6
20260510032520 71 0.0 0.9 0.00 0.51 0.50 91 1013.7
20260510031519 71 225 0.9 1.7 0.00 0.51 0.50 91 1013.8
20260510030519 71 0.0 0.9 0.00 0.51 0.50 91 1013.5
20260510025519 71 225 0.9 1.7 0.00 0.51 0.50 91 1013.6
20260510024519 71 248 1.7 2.6 0.00 0.51 0.50 91 1013.4
20260510023519 71 0.0 1.7 0.00 0.51 0.50 91 1012.7
20260510022519 71 315 0.9 1.7 0.00 0.51 0.50 91 1013.1
20260510021540 71 0.0 0.0 0.00 0.51 0.50 91 1012.9
20260510020539 72 0.0 0.0 0.00 0.51 0.50 91 1012.8
20260510015600 72 0.0 0.0 0.00 0.51 0.50 91 1012.5
20260510014520 72 0.0 0.0 0.00 0.51 0.50 90 1012.4
20260510013520 72 0.0 0.0 0.00 0.51 0.50 90 1012.3
20260510012521 72 225 0.9 2.6 0.00 0.51 0.50 90 1012.5
20260510011519 72 0.0 0.0 0.00 0.51 0.50 90 1012.2
20260510010539 72 0.0 0.0 0.00 0.51 0.50 90 1012.1
20260510005520 72 0.0 0.0 0.00 0.51 0.50 90 1012.0
20260510004539 72 0.0 0.0 0.00 0.51 0.50 90 1012.0
20260510003519 72 0.0 0.0 0.00 0.51 0.50 90 1012.3
20260510002519 72 0.0 0.0 0.00 0.51 0.50 90 1012.3
20260510001520 72 0.0 1.7 0.00 0.51 0.50 90 1012.3
20260510000540 72 248 1.7 3.5 0.00 0.51 0.50 90 1012.6
20260509235520 72 270 1.7 3.5 0.00 0.51 0.50 90 1012.5
20260509234517 73 0.0 2.6 0.00 0.51 0.50 90 1012.5
20260509233519 72 0.0 0.0 0.00 0.51 0.50 90 1012.4
20260509232518 72 0.0 0.0 0.00 0.51 0.50 90 1012.4
20260509231517 72 0.0 0.9 0.00 0.51 0.50 90 1012.5
20260509230518 72 23 0.9 2.6 0.00 0.51 0.50 90 1012.4
20260509225517 72 0.0 1.7 0.00 0.51 0.50 90 1012.2
20260509224517 72 0.0 0.0 0.00 0.51 0.50 90 1012.3
20260509223559 72 0.0 0.0 0.00 0.51 0.51 89 1012.3
20260509223418 72 0.0 0.0 0.00 0.51 0.51 89 1012.2